Location: Unspecified
(0.0000°N, 0.0000°E)
Time: 12:47:00
(UTC+00:00)

Vanguard 2 - Pass Details

Date: 17 September 2019
Orbit: 554 x 2937 km, 32.9° (Epoch: 13 October)

Event Time Altitude Azimuth Distance (km) Brightness Sun altitude
Rises 12:54:04 0° 295° (WNW) 2,798 10.6 75.0°
Reaches altitude 10° 12:56:04 10° 291° (WNW) 1,999 10.1 74.5°
Maximum altitude 13:00:27 56° 212° (SSW) 917 9.2 73.4°
Drops below altitude 10° 13:07:00 10° 134° (SE) 2,955 10.5 71.8°
Sets 13:10:34 0° 131° (SE) 4,301 11.2 70.9°
